Weather History for Port Angeles, WA

Change the Weather History Date:

Wednesday, January 29, 2014

  Actual Average Record
Temperature  
Mean Temperature 42 °F -  
Max Temperature 46 °F 45 °F 57 °F (1998)
Min Temperature 37 °F 34 °F 13 °F (1950)
Degree Days  
Heating Degree Days 22    
Moisture  
Dew Point 43 °F    
Average Humidity 98    
Maximum Humidity 100    
Minimum Humidity 89    
Precipitation  
Precipitation 0.75 in - - ()
Sea Level Pressure  
Sea Level Pressure 29.75 in    
Wind  
Wind Speed 5 mph (SE)    
Max Wind Speed 10 mph    
Max Gust Speed -    
Visibility 6 miles    
Events Rain    
Averages and records for this station are not official NWS values.
T = Trace of Precipitation, MM = Missing Value Source: NWS Daily Summary

Daily Weather History Graph

Daily Weather History Graph

Search for Another Location

Airport:

Trip Planner

Search our weather history database for the weather conditions in past years. The results will help you decide how hot, cold, wet, or windy it might be!

Date:

Astronomy

Jan. 29, 2014 Rise Set
Actual Time 7:45 AM PST 5:09 PM PST
Civil Twilight 7:11 AM PST 5:42 PM PST
Nautical Twilight 6:34 AM PST 6:20 PM PST
Astronomical Twilight 5:57 AM PST 6:57 PM PST
Moon 6:27 AM PST (1/29) 4:16 PM PST (1/29)
Length of Visible Light 10h 30m
Length of Day
9h 23m
Waning Crescent, 2% of the Moon is Illuminated
Jan 29
Waning Crescent
Jan 30
New
Feb 6
First Quarter
Feb 14
Full
Feb 22
Last Quarter

Hourly Weather History & Observations

Time (PST) Temp. Windchill Dew Point Humidity Pressure Visibility Wind Dir Wind Speed Gust Speed Precip Events Conditions
12:01 AM 44.1 °F 40.1 °F 43.0 °F 96% 29.91 in 1.8 mi East 6.9 mph - 0.01 in Rain Light Rain
12:12 AM 44.1 °F 42.5 °F 43.0 °F 96% 29.91 in 2.5 mi East 3.5 mph - 0.04 in Rain Light Rain
12:37 AM 43.0 °F 41.3 °F 43.0 °F 100% 29.89 in 3.0 mi ESE 3.5 mph - 0.09 in Rain Light Rain
12:45 AM 43.0 °F 39.5 °F 43.0 °F 100% 29.89 in 4.0 mi East 5.8 mph - 0.10 in Rain Light Rain
12:53 AM 44.1 °F 41.5 °F 43.0 °F 96% 29.90 in 4.0 mi ESE 4.6 mph - 0.12 in Rain Light Rain
1:53 AM 44.1 °F 41.5 °F 42.1 °F 93% 29.86 in 5.0 mi ESE 4.6 mph - 0.16 in Rain Rain
2:51 AM 44.6 °F 40.7 °F 42.8 °F 93% 29.81 in 4.0 mi ESE 6.9 mph - 0.03 in   Overcast
2:53 AM 44.1 °F 40.8 °F 43.0 °F 96% 29.82 in 5.0 mi ESE 5.8 mph - 0.03 in   Overcast
3:28 AM 44.1 °F 40.1 °F 44.1 °F 100% 29.81 in 5.0 mi East 6.9 mph - 0.00 in Rain Light Rain
3:53 AM 44.1 °F 39.5 °F 44.1 °F 100% 29.81 in 4.0 mi East 8.1 mph - 0.02 in Rain Light Rain
4:53 AM 44.1 °F 39.0 °F 44.1 °F 100% 29.79 in 4.0 mi East 9.2 mph - 0.03 in Rain Light Rain
5:05 AM 44.1 °F 40.1 °F 43.0 °F 96% 29.77 in 2.5 mi East 6.9 mph - 0.02 in Rain Light Rain
5:13 AM 44.1 °F 40.1 °F 43.0 °F 96% 29.77 in 4.0 mi East 6.9 mph - 0.02 in Rain Light Rain
5:53 AM 44.1 °F 41.5 °F 44.1 °F 100% 29.77 in 5.0 mi ESE 4.6 mph - 0.04 in Rain Light Rain
6:28 AM 44.1 °F 41.5 °F 43.0 °F 96% 29.73 in 10.0 mi East 4.6 mph - 0.01 in   Overcast
6:39 AM 44.1 °F 41.5 °F 44.1 °F 100% 29.73 in 9.0 mi East 4.6 mph - 0.01 in   Overcast
6:53 AM 44.1 °F 42.5 °F 44.1 °F 100% 29.74 in 8.0 mi East 3.5 mph - 0.01 in   Overcast
7:53 AM 44.1 °F 41.5 °F 44.1 °F 100% 29.72 in 4.0 mi ESE 4.6 mph - 0.00 in Rain Light Rain
8:07 AM 44.1 °F 42.5 °F 44.1 °F 100% 29.71 in 2.0 mi SE 3.5 mph - 0.00 in   Overcast
8:20 AM 44.1 °F - 44.1 °F 100% 29.71 in 5.0 mi Calm Calm - 0.00 in   Overcast
8:53 AM 44.1 °F 42.5 °F 44.1 °F 100% 29.70 in 5.0 mi ESE 3.5 mph - 0.01 in Rain Light Rain
9:53 AM 44.1 °F - 44.1 °F 100% 29.70 in 5.0 mi Calm Calm - 0.01 in Rain Light Rain
10:45 AM 44.1 °F - 44.1 °F 100% 29.69 in 4.0 mi Calm Calm - 0.06 in Rain Light Rain
10:53 AM 44.1 °F - 44.1 °F 100% 29.70 in 3.0 mi Calm Calm - 0.07 in Rain Light Rain
11:01 AM 44.1 °F - 44.1 °F 100% 29.69 in 2.5 mi Calm Calm - 0.02 in Rain Light Rain
11:13 AM 44.1 °F - 44.1 °F 100% 29.69 in 3.0 mi Calm Calm - 0.04 in Rain Light Rain
11:25 AM 44.1 °F 40.8 °F 44.1 °F 100% 29.69 in 3.0 mi East 5.8 mph - 0.07 in Rain Rain
11:38 AM 44.1 °F - 44.1 °F 100% 29.69 in 4.0 mi Calm Calm - 0.10 in Rain Light Rain
11:53 AM 44.1 °F - 44.1 °F 100% 29.69 in 3.0 mi Calm Calm - 0.14 in Rain Light Rain
12:53 PM 44.1 °F - 44.1 °F 100% 29.69 in 8.0 mi Calm Calm - 0.07 in Rain Light Rain
1:35 PM 45.0 °F - 45.0 °F 100% 29.69 in 10.0 mi Calm Calm - 0.02 in Rain Light Rain
1:44 PM 45.0 °F - 45.0 °F 100% 29.69 in 10.0 mi Calm Calm - 0.02 in Rain Light Rain
1:53 PM 45.0 °F - 45.0 °F 100% 29.70 in 10.0 mi Calm Calm - 0.03 in Rain Light Rain
2:26 PM 46.0 °F 44.8 °F 46.0 °F 100% 29.69 in 10.0 mi South 3.5 mph - 0.00 in Rain Light Rain
2:53 PM 46.0 °F 44.8 °F 46.0 °F 100% 29.71 in 10.0 mi SSW 3.5 mph - 0.01 in Rain Light Rain
3:07 PM 46.0 °F - 46.0 °F 100% 29.71 in 10.0 mi Calm Calm - 0.00 in Rain Light Rain
3:23 PM 46.0 °F 43.9 °F 46.0 °F 100% 29.71 in 10.0 mi SW 4.6 mph - 0.00 in   Overcast
3:53 PM 46.9 °F - 46.9 °F 100% 29.72 in 10.0 mi SSW 4.6 mph - 0.00 in   Overcast
4:02 PM 46.9 °F - 46.9 °F 100% 29.71 in 10.0 mi SSW 3.5 mph - N/A   Overcast
4:53 PM 45.0 °F 39.7 °F 43.0 °F 93% 29.73 in 10.0 mi WSW 10.4 mph - N/A   Partly Cloudy
5:53 PM 44.1 °F 39.0 °F 43.0 °F 96% 29.75 in 10.0 mi WSW 9.2 mph - N/A   Clear
6:53 PM 42.1 °F 37.1 °F 39.9 °F 92% 29.75 in 10.0 mi West 8.1 mph - N/A   Clear
7:53 PM 42.1 °F 37.1 °F 39.0 °F 89% 29.76 in 10.0 mi West 8.1 mph - N/A   Clear
8:53 PM 41.0 °F 36.4 °F 39.0 °F 93% 29.76 in 10.0 mi WSW 6.9 mph - N/A   Clear
9:53 PM 39.9 °F 36.7 °F 37.9 °F 93% 29.78 in 10.0 mi SSW 4.6 mph - N/A   Clear
10:53 PM 41.0 °F 39.0 °F 37.9 °F 89% 29.79 in 10.0 mi ESE 3.5 mph - N/A   Partly Cloudy
11:53 PM 37.0 °F 33.3 °F 35.1 °F 93% 29.80 in 10.0 mi WSW 4.6 mph - N/A   Partly Cloudy